Temperature
16 16 16 16 16 16 16 16 16 16 16 16 16 16 16 16 16 16 16 16 16 16 16 16 16 16 16 16 16 16 16 16 16 16 16 16 16 16 16 16 16 16 17
16 16 16 16 16 16 16 16 16 16 16 16 16 16 15 15 15 15 15 15 16 16 16 16 16 16 16 16 16 16 16 16 16 16 16 16 16 16 16 16 16 16 16
16 16 16 16 16 16 16 16 16 15 15 15 15 15 15 15 15 15 15 15 15 16 16 16 16 16 16 16 16 16 16 16 16 16 16 16 16 16 16 16 16 16 16
16 16 16 16 16 16 16 16 16 15 15 15 15 15 15 15 15 15 15 15 15 15 15 16 16 16 16 16 16 16 16 16 16 16 16 16 16 16 16 16 16 16 16
16 16 16 16 15 15 15 15 15 15 15 15 15 15 15 15 15 15 15 15 15 15 15 15 15 15 15 15 16 16 16 16 16 16 16 16 16 16 16 16 16 16 16
16 16 15 15 15 15 15 15 15 15 15 15 15 15 16 15 15 15 15 15 15 15 15 15 15 15 15 15 15 15 15 15 15 15 15 15 15 15 16 16 16 16 16
16 15 15 15 15 15 15 15 15 15 15 15 15 15 16 15 15 15 15 15 15 15 15 15 15 15 15 15 15 15 15 15 15 15 15 15 15 15 15 15 16 16 16
16 15 15 15 15 15 15 15 15 15 15 15 15 15 15 15 15 15 15 15 15 15 15 15 15 15 15 15 15 15 15 15 15 15 15 15 15 15 15 15 15 15 15
16 15 15 15 15 15 15 15 15 15 15 15 15 15 15 15 15 15 15 15 15 15 15 15 15 15 15 15 15 15 15 15 15 15 15 15 15 15 15 15 15 15 15
15 15 15 15 15 15 15 15 15 15 15 15 15 15 15 15 15 15 15 15 15 15 15 15 15 15 15 15 15 15 15 15 15 15 15 15 15 15 15 15 14 14 14
15 15 15 15 15 15 15 15 15 15 15 15 15 15 15 15 15 15 15 15 15 15 15 14 14 14 14 15 15 14 14 14 15 15 14 14 14 14 14 14 14 14 14
15 15 15 15 15 15 15 15 15 15 15 15 15 15 15 15 15 15 15 15 14 14 14 14 14 14 14 14 14 14 14 14 14 14 14 14 14 14 14 14 14 14 14
15 15 15 15 15 15 15 15 15 15 15 15 15 15 15 15 15 15 15 15 14 14 14 14 14 14 14 14 14 14 14 14 14 14 14 14 14 14 14 14 14 14 14
15 15 15 15 15 15 15 15 15 15 15 15 15 15 15 15 15 15 14 14 14 14 14 14 14 14 14 14 14 14 14 14 14 14 14 14 14 14 14 14 14 14 14
15 15 15 15 15 15 15 15 15 15 15 15 15 15 15 14 14 14 14 14 14 14 13 13 13 13 13 13 13 13 13 13 13 13 13 13 13 13 13 13 13 13 13
15 15 15 15 15 15 15 15 15 15 15 15 14 14 14 14 14 14 14 14 14 14 13 13 13 13 13 13 13 13 13 13 13 13 13 13 13 13 13 13 13 13 13
15 15 15 15 15 15 15 15 15 15 14 14 14 14 14 14 14 14 14 14 14 14 13 13 13 13 13 13 13 13 13 13 13 13 13 13 13 13 12 12 12 12 12
15 15 15 15 15 15 15 14 14 14 14 14 14 14 14 14 14 13 14 13 13 13 13 13 13 12 12 12 12 12 12 12 12 12 12 12 12 12 12 12 12 12 12
15 15 15 15 15 15 15 14 14 14 14 14 14 14 14 14 14 13 13 13 13 13 13 13 12 12 12 12 12 12 12 12 12 11 12 12 11 11 11 11 11 11 11
15 15 15 15 15 15 15 14 14 14 14 14 14 14 14 14 13 13 13 13 13 13 12 12 12 12 12 11 11 11 11 11 11 11 11 11 11 11 11 11 11 10 10
15 15 15 15 15 15 14 14 14 14 14 14 13 13 13 13 13 13 13 13 13 12 12 12 12 12 11 11 11 11 11 11 11 11 10 10 10 10 10 10 10 10 10
15 15 15 15 15 15 14 14 14 14 14 14 13 13 13 13 13 13 13 13 13 12 12 12 12 11 11 11 11 11 10 10 10 10 10 10 10 10 10 10 10 9 9
15 15 15 15 15 15 14 14 14 14 14 14 13 13 13 13 13 13 13 12 12 12 12 12 11 11 11 11 10 10 10 10 10 9 9 9 9 9 9 9 9 9 9
15 15 15 15 15 15 14 14 14 14 14 14 13 13 13 13 12 12 12 12 12 12 11 11 11 11 11 10 10 10 10 9 9 9 9 9 9 9 9 9 8 8 8
15 15 15 15 15 14 14 14 14 14 14 13 13 13 13 13 12 12 12 12 12 12 11 11 11 10 10 10 10 10 9 9 9 9 8 8 8 8 8 8 8 8 8
15 15 15 14 14 14 14 14 14 14 14 13 13 13 13 12 12 12 12 12 12 11 11 11 11 10 10 10 9 9 9 9 8 8 8 7 7 7 7 7 7 7 7
Wind_Speed
2 2 3 3 4 4 2 3 4 5 6 7 8 8 7 7 8 9 9 11 11 11 10 9 9 8 7 7 7 8 9 9 9 9 10 9 9 9 8 8 7 6 5
2 2 2 3 3 3 3 4 5 4 5 5 6 7 7 7 7 9 9 9 11 11 11 11 10 10 10 9 9 9 10 10 10 10 10 10 10 9 9 9 8 7 7
4 3 3 3 3 5 6 5 5 4 4 4 5 5 5 6 6 7 8 8 9 11 12 12 12 12 12 12 12 12 12 12 12 11 11 10 10 9 9 9 8 7 7
6 4 3 3 4 5 4 2 3 4 4 4 4 3 4 4 5 5 6 8 8 8 10 12 13 13 14 14 14 14 13 13 12 12 11 11 11 10 9 9 8 7 7
7 5 2 2 5 3 2 3 4 3 3 3 2 3 3 3 4 5 5 7 7 9 9 10 13 14 14 14 14 14 14 13 13 12 11 11 11 10 9 9 8 8 7
8 6 2 4 5 4 4 4 4 3 2 2 3 4 2 3 3 4 5 6 7 8 8 9 9 12 14 15 14 14 13 13 12 12 11 11 11 10 10 10 9 9 8
6 5 3 3 4 4 3 4 3 3 2 2 2 2 2 3 4 3 3 4 5 7 8 9 9 9 10 13 14 14 13 12 12 11 11 10 10 9 9 9 9 9 8
5 4 3 3 4 3 4 4 3 2 2 2 2 1 1 3 3 3 3 3 4 6 6 9 9 10 10 10 11 12 13 12 11 11 10 10 9 9 9 9 9 9 9
6 5 4 3 2 3 3 3 3 3 2 3 3 2 2 1 1 2 3 4 4 4 4 7 10 11 11 10 9 11 12 12 11 11 10 10 10 9 9 9 9 10 10
5 5 5 4 3 3 3 2 3 2 2 2 2 2 1 2 2 1 2 3 4 5 4 5 7 9 10 10 10 11 11 11 11 12 11 11 11 11 10 10 10 10 10
4 5 5 4 4 3 3 4 4 3 2 2 2 2 3 2 1 2 1 1 2 2 3 4 4 6 8 9 10 10 10 11 11 12 12 12 12 12 12 11 11 10 10
2 3 4 4 4 3 3 3 3 3 3 3 3 3 2 2 2 2 1 1 1 1 2 3 3 4 6 9 9 9 9 10 11 12 12 12 13 13 12 11 11 11 10
2 2 3 3 3 2 3 3 2 2 2 3 3 3 3 3 2 2 2 1 1 0 2 2 3 5 6 8 8 8 8 9 10 11 11 12 12 13 12 11 11 11 11
3 3 3 3 3 3 3 3 2 2 2 3 3 3 3 3 4 3 2 2 2 2 2 2 3 4 6 7 7 7 6 7 8 9 10 11 12 12 12 11 11 12 12
2 3 3 3 3 3 3 3 2 2 3 4 3 3 3 2 3 3 2 2 2 1 1 1 2 2 4 6 5 5 5 6 7 7 8 9 10 11 11 11 11 11 12
3 3 3 3 4 3 3 3 2 2 3 3 2 3 3 3 3 2 2 2 2 2 1 1 1 1 2 4 4 4 4 4 5 5 5 6 7 9 9 10 10 11 11
2 2 2 2 4 4 3 3 2 2 2 2 2 3 3 3 2 2 2 3 3 3 2 1 1 1 2 2 2 2 2 2 2 3 4 4 5 6 7 8 9 9 10
2 2 2 2 3 3 2 3 2 1 2 3 3 4 3 2 2 3 2 2 2 2 2 1 1 1 1 1 1 1 1 2 1 2 3 3 3 3 4 5 6 7 8
3 2 2 2 3 2 2 2 2 2 2 3 3 3 3 3 2 2 1 2 1 2 2 1 1 1 1 1 2 2 2 1 2 1 2 3 3 3 2 3 4 5 6
3 3 2 3 3 2 1 2 2 2 2 2 3 3 3 3 3 2 2 2 2 2 2 1 1 1 1 1 1 2 2 2 2 2 3 2 3 3 2 3 2 3 4
4 3 3 3 3 2 1 2 1 2 2 2 2 2 3 5 6 4 3 3 3 2 1 1 1 1 2 2 2 1 2 2 3 2 1 2 2 2 2 3 2 2 3
3 3 3 3 3 2 4 4 2 2 1 1 1 1 2 3 4 4 5 4 3 2 1 1 1 1 2 2 1 2 1 2 3 3 2 3 1 1 2 2 2 2 2
4 3 3 3 4 4 5 4 2 0 1 1 1 1 1 2 3 2 2 1 1 1 1 1 0 2 2 2 2 2 2 2 2 3 2 3 2 2 3 3 3 3 3
5 4 4 3 3 4 5 5 2 1 1 1 0 0 1 1 1 2 2 1 0 1 1 1 2 2 1 2 1 2 2 2 3 3 2 2 3 3 4 3 4 3 4
5 5 4 4 4 4 6 6 4 1 1 1 1 0 1 1 2 3 2 1 1 1 1 1 2 2 3 3 2 2 3 2 3 3 2 1 3 4 3 2 4 5 6
5 5 4 4 5 4 7 8 6 2 2 1 1 0 1 2 3 3 1 0 2 3 2 2 2 3 3 3 2 0 1 1 2 3 3 1 3 3 3 3 3 5 6
Wind_Direction
47 63 73 69 80 88 66 39 53 54 52 46 51 57 58 62 76 88 84 75 70 63 60 59 60 59 56 60 60 57 58 57 55 55 53 52 51 50 47 52 54 52 48
57 66 72 62 65 67 67 73 70 59 61 55 48 47 46 56 75 86 96 81 72 67 61 60 61 59 59 68 68 64 61 59 58 57 57 55 54 53 48 50 50 47 43
49 50 62 65 64 64 57 58 68 65 74 69 61 58 54 48 67 79 92 94 84 73 67 63 64 63 63 68 68 66 64 62 60 60 58 56 55 54 51 49 47 43 42
58 51 52 54 58 67 73 69 56 60 55 57 57 49 57 47 48 65 77 87 87 87 80 72 67 67 67 67 67 65 64 61 58 57 57 54 52 50 49 48 42 36 38
48 66 50 53 57 55 50 68 59 55 58 58 82 72 56 50 35 45 57 73 84 95 98 88 76 71 71 66 65 63 61 58 55 54 53 51 49 47 47 45 40 35 36
37 55 58 53 53 50 45 69 76 57 49 37 51 68 70 79 57 37 43 54 63 81 92 97 94 80 72 67 63 61 59 56 53 53 53 51 49 48 46 43 40 36 34
38 44 54 56 54 58 47 68 70 51 36 49 50 39 45 60 79 65 48 53 56 64 78 88 89 91 79 67 61 59 56 53 52 51 51 49 47 45 44 41 38 35 32
45 51 61 68 67 62 50 61 68 40 9 34 50 51 75 33 25 64 63 59 59 59 55 68 79 85 85 78 63 57 52 48 47 48 47 47 47 45 43 40 37 35 35
47 37 43 70 82 76 73 69 68 60 16 360 45 61 64 75 42 28 51 68 63 55 48 54 59 71 80 78 67 54 51 46 43 43 44 45 44 43 40 39 37 36 36
64 46 37 47 70 73 72 57 73 68 59 14 2 14 64 113 124 89 18 53 66 63 54 57 57 60 72 78 72 60 52 47 43 41 43 43 42 39 38 39 39 37 36
65 64 45 39 55 61 71 64 62 51 54 47 21 5 16 13 31 103 100 34 44 56 70 68 68 65 67 77 74 63 58 51 46 43 42 41 40 39 39 40 37 34 31
62 69 62 49 56 53 59 62 66 61 44 34 22 28 43 33 22 51 79 86 93 75 76 73 78 73 74 78 70 61 64 57 50 45 40 37 35 34 34 35 35 31 26
91 78 75 64 60 54 58 56 57 74 66 56 35 24 32 27 36 56 65 58 63 91 78 65 78 77 78 84 68 60 69 60 54 48 41 36 33 30 29 30 32 29 27
105 105 97 92 80 58 69 58 32 34 50 64 60 49 35 27 37 56 64 62 34 27 53 63 55 71 76 87 69 63 75 61 58 52 43 37 34 32 30 31 31 29 28
112 109 114 106 94 71 58 66 49 41 48 40 40 51 47 44 45 42 40 64 87 55 18 42 46 58 75 85 71 63 76 67 62 54 46 41 36 33 31 30 30 29 30
99 115 128 125 117 109 87 60 46 36 70 71 58 59 47 45 42 37 25 25 61 96 60 34 49 59 69 72 70 64 67 70 55 50 42 37 35 32 30 31 32 32 31
115 122 107 109 117 116 109 92 48 28 47 68 74 81 70 59 45 32 36 35 43 70 85 2 34 50 59 49 64 63 55 73 59 51 36 26 27 29 30 30 33 32 29
140 142 130 119 111 107 108 117 105 52 48 48 53 65 66 70 56 42 44 42 53 71 93 55 351 24 30 51 42 25 24 18 28 45 33 11 5 15 26 30 29 27 27
161 157 140 133 121 121 117 108 104 84 78 70 61 62 57 62 52 50 49 38 45 61 76 79 350 353 352 17 21 -0 7 1 346 354 13 353 352 344 3 9 13 17 20
154 151 147 133 131 130 125 128 112 86 82 81 76 67 57 62 47 36 47 29 49 54 48 47 2 337 343 341 35 350 342 342 334 340 8 345 333 334 320 330 335 351 1
161 157 151 138 136 131 108 86 91 102 102 97 90 88 88 86 76 60 55 38 41 41 28 24 347 351 342 352 340 311 322 317 322 334 340 312 297 292 288 296 293 311 336
163 163 160 149 142 129 116 101 67 31 31 102 124 122 123 105 102 91 77 64 64 58 36 26 2 340 320 326 328 339 331 346 320 319 338 308 308 280 269 272 266 276 305
170 170 168 157 150 147 142 140 132 324 346 19 76 113 91 96 110 127 102 68 41 55 157 164 298 295 312 320 330 333 328 320 283 291 334 308 316 311 306 281 266 265 289
171 174 180 175 160 169 164 165 177 233 265 280 287 146 146 140 135 127 112 92 224 226 221 195 197 255 292 322 320 305 289 305 309 320 346 297 313 309 312 293 276 292 310
173 174 180 179 172 171 173 171 165 201 211 225 215 207 157 133 101 98 93 356 325 303 290 212 218 256 297 311 340 4 339 333 311 306 330 321 308 311 303 285 291 306 319
175 171 176 180 177 172 176 176 172 189 218 217 194 136 106 118 104 93 115 349 309 302 321 336 320 307 308 311 313 207 238 284 302 307 320 345 316 335 316 303 323 317 313
Height
1547 1547 1548 1548 1548 1547 1547 1547 1547 1547 1547 1547 1547 1547 1547 1547 1547 1546 1546 1545 1545 1544 1543 1542 1542 1540 1539 1539 1540 1541 1541 1541 1541 1541 1541 1540 1540 1540 1540 1540 1540 1540 1540
1548 1548 1548 1548 1549 1549 1549 1549 1548 1548 1548 1548 1548 1548 1548 1548 1548 1547 1547 1546 1546 1545 1544 1543 1542 1540 1537 1537 1539 1540 1541 1541 1541 1541 1541 1541 1540 1540 1540 1540 1540 1540 1540
1549 1549 1549 1549 1550 1550 1549 1550 1550 1550 1550 1550 1550 1550 1550 1549 1549 1549 1548 1548 1547 1546 1545 1544 1543 1542 1540 1539 1540 1541 1542 1542 1542 1541 1541 1541 1541 1540 1540 1540 1540 1540 1540
1549 1550 1550 1550 1550 1550 1551 1551 1551 1551 1551 1551 1551 1551 1551 1551 1551 1551 1550 1549 1548 1547 1547 1546 1545 1544 1543 1542 1542 1542 1542 1543 1543 1542 1542 1541 1541 1540 1540 1540 1539 1539 1539
1550 1550 1551 1551 1551 1551 1551 1552 1552 1552 1552 1552 1552 1552 1552 1552 1552 1552 1552 1551 1550 1549 1548 1547 1547 1546 1545 1544 1544 1544 1544 1544 1543 1543 1542 1542 1541 1541 1540 1540 1539 1538 1538
1550 1551 1551 1552 1552 1552 1552 1552 1552 1553 1553 1553 1554 1554 1554 1554 1554 1553 1553 1553 1552 1551 1550 1549 1548 1548 1547 1547 1546 1546 1545 1544 1544 1543 1543 1542 1542 1541 1540 1540 1539 1538 1537
1551 1551 1552 1552 1553 1553 1553 1553 1553 1554 1554 1554 1555 1555 1555 1555 1555 1555 1555 1554 1554 1553 1552 1551 1551 1549 1549 1548 1548 1547 1547 1546 1545 1544 1543 1543 1542 1541 1540 1539 1539 1538 1537
1552 1552 1553 1553 1553 1553 1554 1554 1554 1554 1555 1555 1556 1556 1556 1558 1557 1557 1556 1556 1555 1555 1554 1554 1553 1552 1551 1550 1549 1549 1548 1547 1546 1545 1544 1543 1542 1541 1540 1540 1538 1537 1536
1553 1553 1554 1554 1554 1554 1554 1555 1555 1555 1555 1556 1556 1557 1557 1558 1558 1559 1558 1558 1557 1556 1556 1555 1555 1554 1552 1552 1551 1550 1549 1548 1547 1546 1545 1544 1543 1541 1540 1539 1538 1537 1536
1553 1554 1554 1555 1555 1555 1555 1555 1556 1556 1556 1556 1557 1557 1558 1558 1559 1559 1560 1559 1558 1558 1557 1557 1556 1555 1554 1553 1552 1551 1550 1549 1548 1547 1545 1544 1543 1541 1540 1538 1537 1536 1535
1554 1555 1555 1555 1555 1556 1556 1556 1556 1557 1557 1557 1557 1557 1558 1558 1559 1559 1560 1560 1560 1559 1558 1558 1557 1556 1555 1554 1553 1553 1551 1550 1549 1547 1546 1545 1543 1541 1539 1538 1537 1536 1534
1555 1555 1555 1556 1556 1556 1557 1557 1557 1558 1558 1558 1558 1558 1558 1558 1559 1559 1559 1560 1560 1560 1559 1559 1558 1557 1556 1555 1554 1553 1552 1551 1550 1548 1547 1545 1543 1541 1539 1537 1536 1535 1533
1555 1556 1556 1556 1556 1557 1557 1558 1558 1558 1558 1558 1558 1558 1559 1559 1559 1559 1559 1560 1560 1560 1560 1560 1559 1558 1557 1556 1555 1554 1553 1552 1550 1549 1547 1545 1543 1541 1539 1537 1536 1534 1532
1556 1556 1556 1557 1557 1557 1558 1558 1559 1559 1559 1559 1559 1559 1559 1559 1559 1559 1560 1560 1560 1560 1560 1560 1560 1559 1558 1557 1556 1555 1554 1552 1551 1549 1548 1546 1544 1541 1539 1537 1536 1534 1531
1556 1556 1557 1557 1557 1558 1558 1559 1559 1559 1559 1560 1560 1560 1560 1560 1560 1560 1560 1560 1561 1560 1561 1561 1560 1559 1558 1557 1556 1555 1554 1553 1551 1550 1548 1546 1544 1542 1540 1538 1536 1534 1532
1556 1557 1557 1557 1558 1558 1558 1559 1559 1560 1560 1560 1560 1560 1560 1560 1560 1560 1560 1560 1560 1560 1560 1560 1560 1560 1559 1558 1557 1555 1554 1553 1551 1550 1548 1546 1545 1543 1541 1539 1537 1535 1533
1556 1557 1557 1558 1558 1559 1559 1559 1560 1560 1560 1560 1560 1560 1560 1560 1560 1560 1560 1560 1560 1560 1559 1560 1560 1559 1558 1557 1556 1555 1554 1552 1551 1550 1548 1546 1545 1543 1541 1539 1537 1535 1533
1556 1557 1557 1558 1559 1559 1560 1560 1560 1560 1560 1560 1561 1560 1560 1560 1560 1560 1559 1559 1559 1559 1559 1559 1559 1558 1558 1557 1556 1554 1553 1552 1551 1549 1548 1546 1544 1542 1541 1539 1537 1535 1533
1555 1556 1557 1558 1559 1559 1559 1560 1560 1560 1560 1560 1561 1560 1560 1560 1560 1560 1559 1559 1559 1559 1559 1558 1558 1558 1557 1556 1555 1554 1552 1551 1550 1548 1547 1545 1543 1542 1540 1538 1537 1535 1533
1555 1556 1557 1557 1558 1559 1559 1560 1560 1560 1560 1560 1560 1560 1560 1560 1559 1559 1559 1559 1558 1558 1558 1557 1557 1556 1556 1555 1554 1552 1551 1550 1548 1547 1546 1544 1542 1541 1539 1537 1535 1534 1532
1554 1555 1556 1556 1557 1558 1558 1559 1559 1560 1560 1560 1560 1560 1560 1559 1559 1559 1558 1558 1558 1557 1557 1556 1555 1555 1554 1553 1552 1551 1549 1548 1547 1545 1544 1542 1540 1539 1537 1536 1534 1532 1531
1552 1553 1554 1555 1556 1557 1557 1558 1559 1559 1559 1559 1559 1559 1559 1558 1558 1558 1557 1557 1557 1556 1555 1555 1554 1553 1552 1552 1550 1549 1548 1546 1544 1544 1542 1540 1539 1537 1535 1534 1532 1531 1529
1550 1551 1553 1554 1554 1555 1556 1557 1557 1558 1558 1558 1558 1558 1557 1557 1557 1557 1556 1556 1555 1555 1554 1554 1553 1552 1551 1550 1549 1547 1546 1544 1543 1542 1540 1537 1536 1534 1533 1531 1530 1529 1527
1548 1549 1551 1552 1553 1554 1554 1555 1556 1556 1556 1556 1556 1556 1556 1556 1556 1555 1555 1554 1554 1553 1552 1552 1551 1550 1549 1548 1547 1545 1544 1542 1541 1539 1538 1535 1533 1532 1530 1529 1528 1526 1524
1545 1547 1548 1550 1551 1552 1552 1553 1554 1554 1554 1554 1554 1554 1554 1554 1554 1554 1553 1552 1552 1551 1550 1549 1548 1547 1546 1545 1544 1543 1541 1539 1537 1536 1535 1533 1531 1529 1527 1526 1525 1523 1521
1543 1544 1546 1547 1548 1549 1550 1551 1552 1552 1552 1552 1552 1552 1552 1552 1552 1551 1551 1550 1549 1548 1548 1546 1546 1545 1544 1542 1541 1540 1538 1537 1534 1533 1532 1531 1528 1526 1524 1523 1522 1520 1518